Regional Weather Roundup
Issued by NWS New Orleans/Baton Rouge, LA

Home | Current Version | Previous Version | Graphics & Text | Print | Product List | Glossary Off
Versions: 1 2 3 4 5 6 7 8 9 10 11 12 13 14 15 16 17 18 19 20 21 22 23 24 25 26 27 28 29 30 31 32 33 34 35 36 37 38 39 40 41 42 43 44 45 46 47 48 49 50

338
ASUS44 KLIX 211411
RWRLIX
NEW ORLEANS REGIONAL WEATHER ROUNDUP
NATIONAL WEATHER SERVICE NEW ORLEANS LA
900 AM CDT TUE APR 21 2015

NOTE: "FAIR" INDICATES FEW OR NO CLOUDS BELOW 12,000 FEET WITH NO
      SIGNIFICANT WEATHER AND/OR OBSTRUCTIONS TO VISIBILITY.
      SKY/WX - SKY CONDITION AND SIGNIFICANT WEATHER.
      TMP - AIR TEMPERATURE.     DP    - DEWPOINT TEMPERATURE.
      RH  - RELATIVE HUMIDITY.   PRES  - PRESSURE.
      HI  - HEAT INDEX.          WCI   - WIND CHILL INDEX.

*  THESE STATIONS ARE NOT NWS OR FAA STATIONS AND ARE NOT UNDER
   NWS QUALITY CONTROL.

LAZ038-040-048-061>063-065>067-069-211500-
SOUTHEAST LOUISIANA

CITY           SKY/WX    TMP DP  RH WIND       PRES   REMARKS
N.O. AUDUBON     N/A     69  49  50 MISG        N/A
N.O. INTL ARPT CLOUDY    70  46  42 NE14      30.04S
N.O. LAKEFRONT CLOUDY    69  50  50 NE13      30.05S
SLIDELL        PTSUNNY   62  53  72 N6        30.06R
BATON ROUGE    SUNNY     63  48  58 NE8       30.06R
BOOTHVILLE     CLOUDY    68  54  60 NE8       30.05R
BELLE CHASSE   CLOUDY    65  48  54 NE9       30.05R
BOGALUSA*        N/A     63  50  64 NE5       30.08R
GALLIANO*      PTSUNNY   70  51  51 NE3       30.06S
NEW ROADS*       N/A     64  46  52 NE9       30.08R
GONZALES*        N/A     64  51  62 NE5       30.06R
HAMMOND*       MOSUNNY   64  48  55 NE7       30.08R
HOUMA*         PTSUNNY   66  55  68 N5        30.05R
PORT FOURCHON* SUNNY     70  50  49 NE17G24   30.07F

$$

MSZ070-080>082-211500-
SOUTHERN MISSISSIPPI

CITY           SKY/WX    TMP DP  RH WIND       PRES   REMARKS
MCCOMB         PTSUNNY   60  46  59 NE7       30.07R
GULFPORT       PTSUNNY   64  48  56 NE7       30.06R
BILOXI         CLOUDY    64  49  60 NE6       30.06R
PASCAGOULA     PTSUNNY   65  50  58 NE5       30.06R
STENNIS ARPT*  SUNNY     61  46  59 MISG      30.07R

$$

COASTAL OBSERVATIONS
LAKE AND NEARSHORE STATIONS

STATION/POSITION TIME  TEMP    WIND        PRES    WAVE
                       AIR SEA DIR/SP/G            HT/PER
                 (UTC) (F)     (DEG/KT/KT) (MB)    (FT/S)
PASCAGOULA       1300   60      60/  4/  6 1017.0
WAVELAND YACHT   1300   60 69   70/  7/  9 1017.4
GRAND ISLE       1300   68 75   60/ 12/ 18 1016.6
SOUTHWEST PASS   1300   68 63   40/ 12/ 14 1017.0
NEW CANAL        1300   67      50/ 14/ 16 1017.5
SHELL BEACH      1300   66 73   40/ 16/ 18 1016.5

OFFSHORE STATIONS

STATION/POSITION TIME  TEMP    WIND        PRES    WAVE
                       AIR SEA DIR/SP/G            HT/PER
                 (UTC) (F)     (DEG/KT/KT) (MB)    (FT/S)
64 S DAUPHIN ISL 1350   68 73   50/ 19/ 21 1017.1    5/ 5

$$




USA.gov is the U.S. government's official web portal to all federal, state and local government web resources and services.